Weather History for K79J - January, 2014

Change the Weather History Date:

Wednesday, January 22, 2014

  Actual Average (KCEW) Record (KCEW)
Temperature  
Mean Temperature 38 °F -  
Max Temperature 50 °F 61 °F 80 °F (1949)
Min Temperature 27 °F 35 °F 21 °F (2009)
Degree Days  
Heating Degree Days 26    
Moisture  
Dew Point 13 °F    
Average Humidity 43    
Maximum Humidity 66    
Minimum Humidity 16    
Precipitation  
Precipitation 0.00 in - - ()
Sea Level Pressure  
Sea Level Pressure 30.18 in    
Wind  
Wind Speed 7 mph (NNW)    
Max Wind Speed 12 mph    
Max Gust Speed -    
Visibility 10 miles    
Events      
Averages and records for this station are not official NWS values.
T = Trace of Precipitation, MM = Missing Value Source: NWS Daily Summary

Daily Weather History Graph

Daily Weather History Graph

Search for Another Location

Airport or City:

Trip Planner

Search our weather history database for the weather conditions in past years. The results will help you decide how hot, cold, wet, or windy it might be!

Date:

Astronomy

Jan. 22, 2014 Rise Set
Actual Time 6:43 AM CST 5:11 PM CST
Civil Twilight 6:17 AM CST 5:37 PM CST
Nautical Twilight 5:47 AM CST 6:07 PM CST
Astronomical Twilight 5:18 AM CST 6:36 PM CST
Moon 11:15 PM CST (1/22) 10:09 AM CST (1/22)
Length of Visible Light 11h 20m
Length of Day
10h 28m
Waning Gibbous, 65% of the Moon is Illuminated
Jan 22
Waning Gibbous
Jan 23
Last Quarter
Jan 30
New
Feb 6
First Quarter
Feb 14
Full

Hourly Weather History & Observations

Time (CST) Temp. Windchill Dew Point Humidity Pressure Visibility Wind Dir Wind Speed Gust Speed Precip Events Conditions
12:56 AM 30.9 °F 22.2 °F 14.0 °F 50% 30.14 in 10.0 mi North 10.4 mph - N/A   Clear
1:56 AM 30.0 °F 22.4 °F 14.0 °F 51% 30.14 in 10.0 mi NNW 8.1 mph - N/A   Clear
2:56 AM 30.0 °F 21.7 °F 15.1 °F 54% 30.16 in 10.0 mi NNW 9.2 mph - N/A   Clear
3:56 AM 28.9 °F 19.2 °F 14.0 °F 54% 30.17 in 10.0 mi NNW 11.5 mph - N/A   Clear
4:56 AM 28.0 °F 19.3 °F 14.0 °F 56% 30.16 in 10.0 mi North 9.2 mph - N/A   Clear
5:56 AM 28.0 °F 19.3 °F 12.9 °F 53% 30.20 in 10.0 mi NNW 9.2 mph - N/A   Clear
6:56 AM 27.0 °F 19.5 °F 12.9 °F 56% 30.22 in 10.0 mi NNW 6.9 mph - N/A   Clear
7:56 AM 30.0 °F 21.7 °F 12.9 °F 49% 30.23 in 10.0 mi NNE 9.2 mph - N/A   Clear
8:56 AM 32.0 °F 24.2 °F 10.9 °F 42% 30.24 in 10.0 mi North 9.2 mph - N/A   Clear
9:56 AM 37.0 °F 32.4 °F 10.0 °F 33% 30.24 in 10.0 mi NE 5.8 mph - N/A   Clear
10:56 AM 39.9 °F 35.8 °F 5.0 °F 23% 30.22 in 10.0 mi Variable 5.8 mph - N/A   Clear
11:56 AM 43.0 °F 38.8 °F 6.1 °F 22% 30.18 in 10.0 mi Variable 6.9 mph - N/A   Clear
12:56 PM 45.0 °F - 5.0 °F 19% 30.15 in 7.0 mi Calm Calm - N/A   Clear
1:56 PM 48.9 °F - 5.0 °F 17% 30.14 in 10.0 mi NW 8.1 mph - N/A   Clear
2:56 PM 50.0 °F - 5.0 °F 16% 30.14 in 10.0 mi WNW 8.1 mph - N/A   Clear
3:56 PM 48.9 °F - 7.0 °F 18% 30.14 in 10.0 mi NNW 6.9 mph - N/A   Clear
4:56 PM 46.9 °F - 9.0 °F 21% 30.16 in 10.0 mi NW 4.6 mph - N/A   Clear
5:56 PM 39.9 °F - 16.0 °F 38% 30.16 in 10.0 mi Calm Calm - N/A   Clear
6:56 PM 37.9 °F - 18.0 °F 45% 30.17 in 10.0 mi Calm Calm - N/A   Clear
7:56 PM 35.1 °F - 17.1 °F 48% 30.18 in 10.0 mi Calm Calm - N/A   Clear
8:56 PM 33.1 °F - 19.9 °F 59% 30.20 in 10.0 mi Calm Calm - N/A   Clear
9:56 PM 32.0 °F - 21.0 °F 64% 30.22 in 10.0 mi Calm Calm - N/A   Clear
10:56 PM 32.0 °F - 21.9 °F 66% 30.22 in 10.0 mi Calm Calm - N/A   Clear
11:56 PM 33.1 °F - 23.0 °F 66% 30.21 in 10.0 mi Calm Calm - N/A   Clear